Left ArrowRight Arrow

38.83388, -104.82136

Hourly Observations for June 20, 2024

Temp ( °F °C ) Dew Point ( °F °C ) Humidity (%) Winds ( mph kmh ) Pressure ( in mb ) Visibility ( mi km ) Precip ( " mm )
12:00 am 00:00 Cloudy with Mist and Fog 55 13 55 13 100 100 SSE 10 17 29.88 1012 2 2 0.00 0.00
12:10 am 00:10 Cloudy with Mist and Fog 55 13 55 13 100 100 SSE 9 15 29.88 1012 6 10 0.00 0.00
12:34 am 00:34 Cloudy with Light Rain 57 14 55 13 94 94 SSE 15 24 29.87 1012 10 16 0.00 0.00
12:55 am 00:55 Cloudy with Light Rain 56 13.3 55 12.8 97 97 SSE 7 11 29.86 1011 10 16 0.01 0.25
1:10 am 01:10 Cloudy with Light Rain 55 13 55 13 100 100 SSE 13 20 29.87 1012 2 4 0.00 0.00
1:15 am 01:15 Cloudy with Light Rain 55 13 55 13 100 100 S 13 20 29.88 1012 1 2 0.00 0.00
1:25 am 01:25 Cloudy with Nearby Thunderstorms 57 14 55 13 94 94 S 10 17 29.88 1012 10 16 0.00 0.00
1:57 am 01:57 Cloudy with Rain 59 15 50 10 72 72 WNW 16 26 29.87 1011 7 11 0.00 0.00
2:28 am 02:28 Cloudy with Light Rain 59 15 48 9 67 67 WSW 12 19 29.83 1010 10 16 0.00 0.00
2:36 am 02:36 Cloudy 55 13 50 10 82 82 SW 8 13 29.87 1012 10 16 0.00 0.00
2:55 am 02:55 Cloudy 56 13.2 52 10.9 86 86 WNW 6 9 29.85 1011 10 16 0.06 1.52
3:21 am 03:21 Cloudy with Light Rain 57 14 52 11 82 82 WNW 9 15 29.86 1011 10 16 0.00 0.00
3:38 am 03:38 Cloudy 57 14 52 11 82 82 SE 6 9 29.89 1012 10 16 0.00 0.00
3:55 am 03:55 Cloudy 56 13.4 51 10.6 83 83 W 6 9 29.88 1012 10 16 0.01 0.13
4:55 am 04:55 Cloudy with Light Rain 61 16 48 9 63 63 ESE 3 6 29.83 1010 10 16 0.01 0.13
5:09 am 05:09 Mostly Cloudy 55 13 52 11 88 88 Calm 29.85 1011 10 16 0.00 0.00
5:55 am 05:55 Mostly Sunny 55 12.5 51 10.6 88 88 SSW 10 17 29.87 1012 10 16 0.01 0.13
6:55 am 06:55 Mostly Cloudy 57 13.7 53 11.6 87 87 NW 3 6 29.88 1012 10 16 0.00 0.00
7:55 am 07:55 Partly Cloudy 57 14.1 53 11.8 86 86 S 9 15 29.89 1012 10 16 0.00 0.00
8:55 am 08:55 Sunny 64 17.6 57 13.9 79 79 ESE 3 6 29.84 1011 10 16 0.00 0.00
10:55 am 10:55 Partly Cloudy 66 18.9 57 13.7 72 72 SSE 15 24 29.81 1009 10 16 0.00 0.00
11:55 am 11:55 Sunny 69 20.8 58 14.2 66 66 SE 16 26 29.80 1009 10 16 0.00 0.00
12:55 pm 12:55 Sunny 71 21.8 57 13.9 61 61 SE 17 28 29.78 1009 10 16 0.00 0.00
1:18 pm 13:18 Sunny 72 22 57 14 60 60 SE 15 24 29.77 1008 10 16 0.00 0.00
1:55 pm 13:55 Sunny 74 23.3 54 12 49 49 SSE 14 22 29.74 1007 10 16 0.00 0.00
2:09 pm 14:09 Sunny 75 24 52 11 44 44 SE 17 28 29.73 1007 10 16 0.00 0.00
2:28 pm 14:28 Sunny 77 25 52 11 41 41 S 15 24 29.70 1006 10 16 0.00 0.00
2:55 pm 14:55 Sunny 76 24.6 51 10.8 42 42 SSE 13 20 29.71 1006 10 16 0.00 0.00
3:13 pm 15:13 Sunny 77 25 54 12 44 44 SSE 14 22 29.70 1006 10 16 0.00 0.00
3:41 pm 15:41 Sunny 77 25 55 13 47 47 S 15 24 29.69 1005 10 16 0.00 0.00
3:55 pm 15:55 Mostly Sunny 75 24 54 12 47 47 S 16 26 29.68 1005 10 16 0.00 0.00
4:55 pm 16:55 Mostly Cloudy 76 24.2 55 12.5 48 48 S 16 26 29.63 1004 10 16 0.00 0.00
5:55 pm 17:55 Mostly Cloudy 76 24.4 53 11.7 45 45 S 8 13 29.66 1004 10 16 0.00 0.00
6:55 pm 18:55 Cloudy 77 24.9 43 6.1 30 30 SSW 5 7 29.66 1004 10 16 0.00 0.00
7:55 pm 19:55 Cloudy 76 24.4 45 7.1 33 33 SW 7 11 29.65 1004 10 16 0.00 0.00
8:55 pm 20:55 Cloudy 74 23.6 44 6.4 33 33 SSW 12 19 29.63 1004 10 16 0.00 0.00
9:55 pm 21:55 Mostly Clear 73 23 46 7.9 38 38 SSW 8 13 29.66 1005 10 16 0.00 0.00
10:55 pm 22:55 Mostly Cloudy 71 21.5 49 9.4 46 46 Calm 29.67 1005 10 16 0.00 0.00
11:55 pm 23:55 Clear 69 20.5 47 8.2 45 45 NNW 13 20 29.67 1005 10 16 0.00 0.00

Powered by Vaisala Xweather